Location: Eaton
(41.3139°N, 82.0207°W)
Time: 15:18:14
(UTC+00:00)

Cosmos 1328 - Pass Details

Date: 17 June 2021
Orbit: 527 x 555 km, 82.5° (Epoch: 01 August)

Event Time Altitude Azimuth Distance (km) Brightness Sun altitude
Exits shadow 05:21:38 54° 18° (NNE) 648 4.4 -25.3°
Drops below altitude 10° 05:24:42 10° 10° (N) 1,780 7.4 -25.3°
Sets 05:26:52 0° 9° (N) 2,675 8.6 -25.3°
